Regional Weather Roundup
Issued by NWS

Home | Current Version | Previous Version | Text Only | Print | Product List | Glossary Off
Versions: 1 2 3 4 5 6 7 8 9 10 11 12 13 14 15 16 17 18 19 20 21 22 23 24 25 26 27 28 29 30 31 32 33 34 35 36 37 38 39 40 41 42 43 44 45 46 47 48 49 50

036
ASUS43 KDMX 251908
RWRIA

WEATHER ROUNDUP FOR IOWA
NATIONAL WEATHER SERVICE DES MOINES IA
200 PM CDT WED MAY 25 2016

NOTE: "FAIR" INDICATES FEW OR NO CLOUDS BELOW 12,000 FEET WITH NO
SIGNIFICANT WEATHER AND/OR OBSTRUCTIONS TO VISIBILITY.

* - THESE STATIONS ARE NOT NWS STATIONS...THUS NOT UNDER NWS
QUALITY CONTROL.  THEY ALSO DO NOT REPORT WEATHER SUCH
AS PRECIPITATION OR FOG.

IAZ001>003-012>014-020>022-031>034-043>046-252000-
   NORTHWEST IOWA

CITY           SKY/WX    TMP DP  RH WIND       PRES   REMARKS
CARROLL *      SUNNY     75  64  69 SW13      29.85S
CHEROKEE *     CLOUDY    75  64  69 SW12      29.84S
DENISON *      SUNNY     75  59  57 VRB7      29.83F
LE MARS *      SUNNY     77  63  61 SW14      29.83F
ORANGE CITY *  SUNNY     75  63  64 SW14G20   29.83F
SHELDON *      MOSUNNY   77  63  61 SW14G22   29.82S
SIOUX CITY     SUNNY     79  61  53 S12       29.82F HX  80
SPENCER        MOSUNNY   77  60  55 SW15      29.83F
STORM LAKE *     N/A     77  59  53 SW13G24   29.85S
$$

IAZ055>058-069>071-079>083-090>094-252000-
   SOUTHWEST IOWA

CITY           SKY/WX    TMP DP  RH WIND       PRES   REMARKS
ATLANTIC *     SUNNY     75  63  64 SW7       29.86R
AUDUBON *      SUNNY     75  63  64 SW5       29.87S
CLARINDA *       N/A     77  64  65 MISG      29.86S
COUNCIL BLFS * SUNNY     75  64  69 SW9G15    29.86R
CRESTON *      SUNNY     73  63  68 CALM      29.87S
HARLAN  *      SUNNY     75  61  60 CALM      29.89R
LAMONI         CLOUDY    77  63  61 S14G21    29.85F
RED OAK *      SUNNY     77  64  65 SW10G17   29.85R
SHENANDOAH *   SUNNY     81  63  54 S17G24    29.84F HX  82
$$

IAZ047>049-059>061-072>074-084-252000-
   CENTRAL IOWA

CITY           SKY/WX    TMP DP  RH WIND       PRES   REMARKS
AMES           CLOUDY    76  66  71 S10       29.84F
ANKENY *       SUNNY     75  64  69 SW9       29.84F
BOONE *        MOSUNNY   75  64  69 SW12      29.84F
CHARITON *     SUNNY     73  61  64 S15       29.86F
DES MOINES     CLOUDY    75  62  64 S12       29.85F
GRINNELL*      PTSUNNY   75  64  69 S12       29.88F
KNOXVILLE *    SUNNY     75  63  64 S13       29.84F
MARSHALLTOWN   PTSUNNY   75  66  73 S14       29.86F
NEWTON *       CLOUDY    75  66  73 S10       29.85F
PELLA *        PTSUNNY   77  64  65 S9        29.86F
PERRY *          N/A     75  64  69 SW10      29.85S
$$

IAZ004>006-015-016-023>025-035-036-252000-
   NORTH CENTRAL IOWA

CITY           SKY/WX    TMP DP  RH WIND       PRES   REMARKS
ALGONA *       PTSUNNY   75  61  60 SW18G28   29.84F
CLARION *      PTSUNNY   75  66  73 SW16      29.85R
ESTHERVILLE    CLOUDY    76  59  55 SW13G24   29.82F
FORT DODGE *   PTSUNNY   75  64  69 SW13      29.85F
MASON CITY     CLOUDY    74  65  73 S13       29.86S
FOREST CITY *  CLOUDY    72  63  73 SW9G17    29.85S
WEBSTER CITY * PTSUNNY   75  68  78 S18       29.82F
IOWA FALLS *   PTSUNNY   73  66  78 S15       29.86S
$$

IAZ007>011-017>019-026>030-037>042-050>054-066-252000-
   NORTHEAST IOWA

CITY           SKY/WX    TMP DP  RH WIND       PRES   REMARKS
CEDAR RAPIDS   CLOUDY    79  66  64 S13       29.86F HX  81
CHARLES CITY * CLOUDY    70  68  94 S14       29.87S
CLINTON *      PTSUNNY   82  66  58 S15       29.91S HX  84
DECORAH *      MOSUNNY   68  68 100 VRB6      29.86F
DUBUQUE        PTSUNNY   82  62  50 S22G30    29.88F HX  83
MONTICELLO *   MOSUNNY   81  64  57 S16G22    29.87F HX  82
OELWEIN *      MOSUNNY   73  66  78 S21       29.88S
WATERLOO       CLOUDY    74  65  73 S14G20    29.85F
$$

IAZ064-065-067-068-078-252000-
   EAST CENTRAL IOWA

CITY           SKY/WX    TMP DP  RH WIND       PRES   REMARKS
DAVENPORT      CLOUDY    83  66  56 S17       29.91F HX  85
IOWA CITY      CLOUDY    80  65  59 S13       29.89F HX  82
MT. PLEASANT * CLOUDY    86  61  42 S15       29.90F HX  86
MUSCATINE *    SUNNY     81  63  54 S13G20    29.89F HX  82
QUAD CITIES    CLOUDY    84  66  54 S13G20    29.90F HX  86
$$

IAZ062-063-075>077-085>089-095>099-252000-
   SOUTHEAST IOWA

CITY           SKY/WX    TMP DP  RH WIND       PRES   REMARKS
BURLINGTON     MOSUNNY   81  64  56 S12       29.92F HX  82
FAIRFIELD *      N/A    N/A N/A N/A MISG        N/A
FORT MADISON * SUNNY     81  64  57 S9        29.93R HX  82
KEOKUK *       SUNNY     81  63  54 S12       29.92S HX  82
OSKALOOSA *      N/A     79  61  53 SW10G16   29.88S HX  80
OTTUMWA        CLOUDY    78  64  61 S12       29.88S HX  80
WASHINGTON *   SUNNY     81  72  74 S14       29.89F HX  84
$$

ABBREVIATIONS USED IN REMARKS
   TC - TEMPERATURES IN CELSIUS
  WCI - WIND CHILL INDEX
   HX - HEAT INDEX
  VSB - VISIBILITY
$$





USA.gov is the U.S. government's official web portal to all federal, state and local government web resources and services.